Weather in Montagu

South Africa     33°47′11″S   20°07′16″E
temp.,
°C
wind,
m/s
gust,
m/s
humid.,
%
clouds,
%
prec.,
mm/h
press.,
hPa
HPBL,
m
21 january, thu
thu2123:00+17sse23761 0.0 1015312
02:00+16se22854 0.0 1014157
05:00+16e128226 0.0 101393
08:00+21ese115914 0.0 1013269
11:00+27sse32383 0.0 1012642
14:00+31sse332839 0.0 1010957
17:00+25sse665665 0.0 1011688
20:00+20sse458079 0.0 1014515
22 january, fri
fri2223:00+19sse3383100 0.1 1016408
02:00+18se128395 0.1 1014326
05:00+18ene118819 0.0 101380
08:00+20ese227612 0.0 1012403
11:00+27sse22467 0.0 1011899
14:00+31s32324 0.0 10091475
17:00+30sse66440 0.0 1008965
20:00+22sse45713 0.0 1009573
23 january, sat
sat2323:00+20sse117710 0.0 1010236
02:00+20se01805 0.0 100864
05:00+19sw11860 0.0 100733
08:00+21sw12720 0.0 1008368
11:00+28ssw34370 0.0 10081203
14:00+34w88100 0.0 10071973
17:00+31sw56170 0.0 10071578
20:00+22sse44380 0.0 1010569
24 january, sun
sun2423:00+17sse55816 0.1 1014471
02:00+16sse458453 0.4 1015442
05:00+15se4576100 0.2 1015637
08:00+15sse357397 0.3 1017674
11:00+18se455999 0.1 10161007
14:00+22sse654690 0.1 10141378
17:00+21sse675337 0.0 10131085
20:00+17se566632 0.0 1014712
25 january, mon
mon2523:00+16se347158 0.0 1015418
02:00+15ene227639 0.0 101491
05:00+14ene12810 0.0 101327
08:00+18ene12630 0.0 1014355
11:00+25s22400 0.0 1012959
14:00+29s33290 0.0 10111535
17:00+28sse77360 0.0 10101067
20:00+20sse45640 0.0 1011643